STARLINK-5546 (55632 NORAD) Tracking and Keplerian Element Data

This shows tracking and keplerian element data for the satellite.

Feedback or suggestion? Click here.




ElementValue
Catalog55632
NameSTARLINK-5546
Epoch Orbit130
Epoch Day62.91667824
Epoch Year2023
RAAN110.2055
Inclination70.0001
Eccentricity0.0003495
Argument of Perigee273.9592
Mean Anonmoly316.9268
Mean Motion15.74853108
Decay Rate-0.00975263
L11 55632U 23021E 23062.91667824 -.00975263 00000+0 -73758-2 0 9990
L22 55632 70.0001 110.2055 0003495 273.9592 316.9268 15.74853108 1304



Live tracking and technical data element details for STARLINK-5546 (NORAD 55632). STARLINK-5546 can be tracked NOW for your location showing map with azimuth and elevation plus other details from your city location.







IsCatalogInMostPopularTable: catalog: 55632, numindb: 4
Update: records affected: 1



GetName: 55632 STARLINK-5546

Hit Count: updated at: Wed, 22 Mar 2023 14:57:23 GMT